This demonstration page uses our WeatherBlox Daily Observations layout. Learn more.

Left ArrowRight Arrow

53.62937, 11.41316

Hourly Observations for November 3, 2020

Temp ( °F °C ) Dew Point ( °F °C ) Humidity (%) Winds ( mph kmh ) Pressure ( in mb ) Visibility ( mi km ) Precip ( " mm )
5:50 am 05:50 Mostly Cloudy 52 11 45 7 77 77 SSW 15 24 29.97 1015 30 48 N/A
6:20 am 06:20 Mostly Cloudy 52 11 45 7 77 77 SSW 15 24 30.00 1016 30 48 N/A
6:50 am 06:50 Mostly Clear 50 10 45 7 82 82 SSW 15 24 30.00 1016 30 48 N/A
7:20 am 07:20 Mostly Clear 50 10 43 6 76 76 SSW 14 22 30.03 1017 30 48 N/A
7:50 am 07:50 Mostly Sunny 50 10 43 6 76 76 S 12 19 30.06 1018 30 48 N/A
8:20 am 08:20 Mostly Sunny 50 10 43 6 76 76 S 14 22 30.06 1018 30 48 N/A
8:50 am 08:50 Mostly Sunny 50 10 43 6 76 76 SSW 15 24 30.09 1019 30 48 N/A
9:20 am 09:20 Mostly Sunny 50 10 43 6 76 76 SSW 15 24 30.09 1019 30 48 N/A
9:50 am 09:50 Partly Cloudy 52 11 43 6 72 72 SSW 17 28 30.09 1019 30 48 N/A
10:20 am 10:20 Mostly Sunny 52 11 43 6 72 72 SSW 16 26 30.09 1019 30 48 N/A
10:50 am 10:50 Mostly Sunny 52 11 43 6 72 72 SSW 17 28 30.12 1020 30 48 N/A
11:20 am 11:20 Mostly Sunny 52 11 41 5 67 67 SSW 15 24 30.12 1020 30 48 N/A
11:50 am 11:50 Mostly Sunny 54 12 43 6 67 67 SSW 17 28 30.12 1020 30 48 N/A
12:20 pm 12:20 Mostly Sunny 54 12 41 5 63 63 SSW 15 24 30.12 1020 30 48 N/A
12:50 pm 12:50 Mostly Sunny 54 12 41 5 63 63 SSW 14 22 30.12 1020 30 48 N/A
1:20 pm 13:20 Mostly Sunny 54 12 41 5 63 63 SSW 15 24 30.15 1021 30 48 N/A
1:50 pm 13:50 Mostly Sunny 52 11 39 4 62 62 SSW 13 20 30.15 1021 30 48 N/A
2:20 pm 14:20 Mostly Sunny 52 11 39 4 62 62 SSW 10 17 30.15 1021 30 48 N/A
2:50 pm 14:50 Partly Cloudy 52 11 39 4 62 62 S 8 13 30.15 1021 30 48 N/A
3:20 pm 15:20 Mostly Sunny 52 11 39 4 62 62 S 7 11 30.15 1021 30 48 N/A
3:50 pm 15:50 Mostly Sunny 52 11 39 4 62 62 S 7 11 30.12 1020 30 48 N/A
4:20 pm 16:20 Mostly Sunny 50 10 41 5 71 71 S 5 7 30.12 1020 7 11 N/A
4:50 pm 16:50 Mostly Clear 48 9 39 4 71 71 SE 3 6 30.12 1020 7 11 N/A
5:20 pm 17:20 Mostly Clear 46 8 39 4 76 76 SE 3 6 30.12 1020 7 11 N/A
5:50 pm 17:50 Mostly Clear 46 8 39 4 76 76 SE 3 6 30.12 1020 7 11 N/A
6:20 pm 18:20 Mostly Clear 46 8 39 4 76 76 SE 5 7 30.12 1020 7 11 N/A
6:50 pm 18:50 Mostly Clear 45 7 39 4 81 81 SE 5 7 30.12 1020 7 11 N/A
7:20 pm 19:20 Mostly Clear 45 7 39 4 81 81 SSE 6 9 30.12 1020 7 11 N/A
7:50 pm 19:50 Mostly Clear 45 7 39 4 81 81 SSE 6 9 30.12 1020 7 11 N/A
8:20 pm 20:20 Mostly Clear 45 7 39 4 81 81 SE 7 11 30.12 1020 7 11 N/A
8:50 pm 20:50 Mostly Clear 46 8 39 4 76 76 SSE 7 11 30.12 1020 7 11 N/A
9:20 pm 21:20 Mostly Clear 46 8 39 4 76 76 SSE 7 11 30.12 1020 7 11 N/A
9:50 pm 21:50 Mostly Clear 48 9 39 4 71 71 S 8 13 30.12 1020 7 11 N/A

Powered by AerisWeather